This is the latest recevied weather packets stored in our database for station/object VE3EP-1. If no packets are shown the sender has not sent any weather packets the latest 10 day(s).
| Time | Temp. | Humidity | Pressure | Rain* | Wind** | Luminosity | Snow |
|---|---|---|---|---|---|---|---|
| 1777522928 | 7.78° C | 95% | 1009.1 hPa | 1.02 mm | - | - | - |
| 1777522328 | 7.78° C | 95% | 1009.1 hPa | 1.02 mm | - | - | - |
| 1777521728 | 7.78° C | 95% | 1009.2 hPa | 1.02 mm | - | - | - |
| 1777521129 | 7.78° C | 96% | 1009.1 hPa | 1.02 mm | - | - | - |
| 1777519929 | 8.33° C | 95% | 1009.1 hPa | 1.02 mm | - | - | - |
| 1777516928 | 8.89° C | 96% | 1009.1 hPa | 3.56 mm | - | - | - |
| 1777515731 | 8.89° C | 96% | 1009.3 hPa | 4.32 mm | - | - | - |
| 1777515129 | 9.44° C | 96% | 1008.9 hPa | 4.32 mm | - | - | - |
| 1777514530 | 9.44° C | 96% | 1009.3 hPa | 4.06 mm | - | - | - |
| 1777513929 | 10° C | 96% | 1009.1 hPa | 3.56 mm | - | - | - |
| 1777513328 | 10° C | 96% | 1009 hPa | 3.05 mm | - | - | - |
| 1777512728 | 10° C | 96% | 1009 hPa | 2.03 mm | - | - | - |
| 1777512128 | 10° C | 96% | 1008.9 hPa | 1.52 mm | - | - | - |
| 1777511528 | 10° C | 96% | 1008.8 hPa | 1.27 mm | - | - | - |
| 1777510928 | 10° C | 96% | 1008.9 hPa | 0.76 mm | - | - | - |
| 1777510329 | 10° C | 96% | 1008.8 hPa | 0.76 mm | - | - | - |
| 1777509728 | 10° C | 96% | 1008.8 hPa | 1.52 mm | - | - | - |
| 1777509128 | 10° C | 96% | 1008.9 hPa | 2.03 mm | - | - | - |
| 1777508528 | 10° C | 96% | 1008.9 hPa | 2.79 mm | - | - | - |
| 1777507928 | 10° C | 95% | 1008.9 hPa | 2.29 mm | - | - | - |
| 1777507328 | 10° C | 96% | 1009 hPa | 2.29 mm | - | - | - |
| 1777506728 | 10° C | 95% | 1009 hPa | 2.29 mm | - | - | - |
| 1777506129 | 10° C | 95% | 1009.1 hPa | 1.52 mm | - | - | - |
| 1777505529 | 10° C | 95% | 1009.4 hPa | 1.27 mm | - | - | - |
| 1777504928 | 10° C | 95% | 1009.3 hPa | 1.02 mm | - | - | - |
* Rain latest hour (hover to see other rain measurements)
** Current wind speed in m/s (hover to see current wind gust speed)